www.pogodaiklimat.ru

Погода и климат >> Архив погоды >> Россия >> Воронежская область >> Нижнедевицк


ПОГОДА в Нижнедевицке

  • Прогноз погоды в Нижнедевицке
  • Монитор погоды в Нижнедевицке

АРХИВ ПОГОДЫ в Нижнедевицке

Время (UTC), дата Ветер
(напр.,м/с)
 
Видим.   Явления Облачность Т
(С)
Тd
(С)
f
(%)
Тe
(С)
Тes
(С)
Комфортность P
(гПа)
Po
(гПа)
Тmin
(С)
Tmax
(С)
R
(мм)
R24
(мм)
S
(см)
06 16.08 В 1 20 км 10/10 1000 м
[Sc]
+22.4 +14.2 60 +26 +26 жарко 1007.5 986.6 +21.9
09 16.08 Ю 3 20 км ?/? +26.1 +14.4 48 +28 +28 жарко 1007.1 986.5
12 16.08 Ю 4 20 км 8/1 1000 м
[Cu hum Ac trans Ci fib]
+30.4 +15.6 41 +33 +37 душно 1006.1 985.8
15 16.08 Ю 4 20 км 9/0
[Ac trans Ci fib]
+29.2 +16.0 45 +32 +33 душно 1005.8 985.4 +30.9
18 16.08 ЮВ 2 20 км 9/0
[Ci fib]
+23.3 +15.5 62 +28 +28 душно 1006.7 985.9
21 16.08 штиль 0 20 км 9/0
[Ci fib]
+20.4 +13.8 66 +22 +22 комфорт 1006.9 985.9
00 17.08 штиль 0 20 км 9/0
[Ci fib]
+18.6 +15.2 81 +19 +19 1007.0 985.9
03 17.08 штиль 0 20 км 9/0
[Ci fib]
+18.0 +14.9 82 +18 +18 1006.7 985.6 +17.5
06 17.08 Ю 3 20 км слаб. ливневой дождь 10/10 600 м
[Cb calv]
+19.7 +16.4 81 +22 +22 комфорт 1007.4 986.4
09 17.08 Ю 4 10 км слаб. ливневой дождь 10/10 600 м
[Cb calv]
+20.3 +18.0 87 +24 +24 комфорт 1008.2 987.3
12 17.08 В 2 10 км слаб. ливневой дождь 10/10 600 м
[Cb calv]
+19.8 +18.2 90 +23 +23 комфорт 1008.1 987.1
15 17.08 В 1 10 км {ливн. осадки} 10/10 600 м
[Sc]
+19.8 +18.4 92 +24 +24 комфорт 1007.8 986.8 +20.7 7
18 17.08 штиль 0 20 км {ливн. осадки} 10/10 1000 м
[Sc]
+19.4 +18.6 95 +22 +22 комфорт 1007.9 986.9
21 17.08 ЮЗ 1 10 км 10/10 1000 м
[Sc]
+18.5 +17.9 96 +20 +20 1007.6 986.5
00 18.08 штиль 0 10 км 9/9 1000 м
[Sc]
+17.9 +17.2 96 +18 +18 1008.3 987.2
03 18.08 Ю 1 10 км 10/10 600 м
[Sc]
+16.2 +15.9 98 +17 +17 1009.1 987.8 +16.1
06 18.08 ЮЗ 2 20 км 10/10 1000 м
[Sc]
+17.1 +15.4 90 +17 +17 1010.7 989.4
09 18.08 Ю 1 20 км 10/10 1000 м
[Sc]
+18.1 +15.6 85 +19 +19 1011.6 990.3
12 18.08 ЮВ 2 20 км 10/6 1000 м
[Cu hum Ci fib]
+21.8 +13.5 59 +25 +27 комфорт 1011.8 990.8
15 18.08 Ю 2 20 км 9/0
[Ci fib]
+22.5 +15.5 65 +26 +27 жарко 1012.1 991.2 +23.9
18 18.08 З 2 20 км 9/0
[Ac trans Ci fib]
+18.0 +13.8 76 +19 +19 1013.7 992.4
21 18.08 З 1 20 км 9/0
[Ac trans Ci fib]
+15.5 +13.4 87 +16 +16 1015.8 994.2
00 19.08 штиль 0 20 км 9/0
[Ac trans Ci fib]
+13.7 +12.8 94 +13 +13 1016.0 994.3
03 19.08 штиль 0 10 км 9/3 1000 м
[Sc Ac trans Ci fib]
+12.4 +12.0 97 +12 +12 1017.8 996.0 +12.2
06 19.08 СЗ 1 20 км ясно +18.2 +14.0 76 +20 +27 1017.7 996.3
09 19.08 С 1 20 км 8/3 1000 м
[Cu hum Ci fib]
+21.9 +12.6 56 +24 +34 комфорт 1018.3 997.2
12 19.08 СЗ 2 20 км 6/6 1000 м
[Cu hum]
+25.2 +12.8 46 +27 +31 жарко 1017.7 996.8
15 19.08 СЗ 1 20 км 3/3 1000 м
[Cu hum]
+25.2 +12.4 45 +27 +28 жарко 1017.8 996.9 +26.0
18 19.08 С 1 20 км ясно +20.6 +14.6 68 +24 +24 комфорт 1020.2 998.9
21 19.08 штиль 0 20 км ясно +15.6 +14.2 91 +15 +15 1020.9 999.2
00 20.08 штиль 0 20 км ясно +14.5 +12.9 90 +14 +14 1021.5 999.7
03 20.08 штиль 0 20 км ясно +13.0 +11.9 93 +12 +13 1022.3 1000.5 +12.7
06 20.08 С 1 20 км ясно +21.7 +14.0 62 +25 +32 комфорт 1022.2 1001.0
09 20.08 СЗ 2 20 км 3/3 1000 м
[Cu hum]
+26.0 +14.9 50 +29 +38 душно 1021.5 1000.5
12 20.08 С 2 20 км 6/3 1000 м
[Cu hum Ci fib]
+28.0 +12.7 39 +29 +35 жарко 1021.6 1000.8
15 20.08 С 1 20 км ясно +27.5 +12.7 40 +29 +30 жарко 1021.5 1000.7 +28.3
18 20.08 СЗ 1 20 км ясно +21.8 +11.2 51 +24 +24 комфорт 1023.0 1001.7
21 20.08 штиль 0 20 км ясно +17.9 +12.1 69 +18 +18 1022.8 1001.3
00 21.08 ЮЗ 1 20 км ясно +15.2 +11.7 80 +16 +16 1023.4 1001.7
03 21.08 штиль 0 20 км ясно +13.4 +11.3 87 +13 +13 1023.9 1002.1 +12.7
06 21.08 СВ 2 20 км ясно +22.2 +14.8 63 +26 +32 душно 1024.5 1003.3
09 21.08 СВ 2 20 км ясно +26.1 +13.8 47 +28 +41 жарко 1023.2 1002.3
12 21.08 В 3 20 км ясно +28.4 +12.6 38 +30 +37 жарко 1021.8 1001.0
15 21.08 СВ 3 50 км ясно +28.2 +13.6 41 +30 +31 жарко 1020.8 1000.0 +28.9
18 21.08 С 2 20 км ясно +23.2 +12.1 50 +26 +26 жарко 1021.2 1000.1
21 21.08 штиль 0 20 км ясно +18.0 +13.6 75 +18 +18 1021.6 1000.1
03 22.08 штиль 0 20 км ясно +15.2 +13.8 91 +15 +15 1021.8 1000.1 +15.0
06 22.08 В 1 20 км ясно +24.5 +15.4 57 +27 +34 жарко 1020.6 999.6 +14.8
09 22.08 СВ 2 20 км 6/3 1000 м
[Cu hum Ci fib]
+28.3 +14.8 44 +31 +39 душно 1020.3 999.5
12 22.08 В 2 20 км 8/4 1000 м
[Cu hum Ci fib]
+29.8 +13.9 38 +32 +36 душно 1019.5 998.9
15 22.08 В 1 20 км 8/3 1000 м
[Cu hum Ci fib]
+28.8 +12.2 36 +30 +31 жарко 1019.5 998.7 +30.2
21 22.08 штиль 0 20 км 6/0
[Ci fib]
+19.4 +16.6 84 +21 +21 комфорт 1021.1 999.8
03 23.08 С 1 20 км 9/0
[Ci fib]
+16.8 +14.0 84 +18 +18 1023.3 1001.8 +16.7

 

Местоположение метеостанции Нижнедевицк (Воронежская область, Россия): широта 51.55 долгота 38.38 высота над уровнем моря 182 м.

В архиве по умолчанию представлена погода в Нижнедевицке за последнюю неделю. Архивные данные за месяц целиком и за предыдущие месяцы, начиная с января 2011 года, Вы можете получить, выбрав интересующий диапазон дат из раскрывающегося списка и нажав кнопку "Ввод!".


*Определитесь, кто Вы:
робот инопланетянин человек

Внимание! Время в таблицах - всемирное. Для получения местного времени необходимо прибавить поправку, которая равна 3 ч.

Смотрите также архив погоды в соседних городах и на ближайших метеорологических станциях:

Погода в Старом Осколе (Белгородская область, Россия) (44 км)
Погода в Воронеже (Воронежская область, Россия) (60 км)
Погода в Богородицком (Белгородская область, Россия) (83 км)
Погода в Конь-Колодезе (Липецкая область, Россия) (85 км)
Погода в Тиме (Курская область, Россия) (87 км)
Погода в Новом Осколе (Белгородская область, Россия) (96 км)
Погода в Лисках (Воронежская область, Россия) (99 км)
Погода в Ливнах (Орловская область, Россия) (112 км)
Погода в Ельце (Липецкая область, Россия) (121 км)
Погода в Анне (Воронежская область, Россия) (141 км)

Пояснения к столбцам:

Ветер - указаны скорость ветра в м/с - средняя за 10 мин, порывы в срок и между сроками (в фигурных скобках) и направление, откуда дует ветер: С - северный, СВ - северо-восточный, В - восточный, ЮВ - юго-восточный, Ю - южный, ЮЗ - юго-западный, З - западный, СЗ - северо-западный.
Видимость - горизонтальная дальность видимости в метрах или километрах. При видимости от 1 до 10 км при отсутствии осадков обычно наблюдается дымка, при ухудшении видимости до 1 км и менее - туман. В сухую погоду видимость может ухудшаться дымом, пылью или мглою.
Явления - указаны атмосферные явления, наблюдавшиеся в срок или в последний час перед сроком; фигурными скобками обозначены явления, наблюдавшиеся между сроками (за 1-3 часа до срока); квадратными скобками обозначены град или гололедные отложения с указанием их диаметра в мм.
Облачность - указаны через наклонную черту общая и нижняя облачность в баллах и высота нижней границы облаков в метрах; квадратными скобками обозначены формы облаков: Ci - перистые, Cs - перисто-слоистые, Cc - перисто-кучевые, Ac - высококучевые, As - высокослоистые, Sc - слоисто-кучевые, Ns - слоисто-дождевые, Cu - кучевые, Cb - кучево-дождевые. Подробнее классификацию облаков см. в Атласе облаков (PDF).
T - Температура воздуха - температура, измеренная на высоте 2 м над землей.
Td - Температура точки росы - температура, при понижении до которой содержащийся в воздухе водяной пар достигнет насыщения.
f - Относительная влажность воздуха - влажноcть воздуха, измеренная на высоте 2 м над землей.
Te - Эффективная температура - температура, которую ощущает одетый по сезону человек в тени. Характеристика душности погоды. При расчете учитывается влияние влажности воздуха и скорости ветра на теплоощущения человека.
Tes - Эффективная температура на солнце - температура, которую ощущает человек, с поправкой на солнечный нагрев. Характеристика знойности погоды. Зависит от высоты солнца над горизонтом, облачности и скорости ветра. Ночью, в пасмурную погоду, а также при ветре 12 м/с и более поправка равна нулю.
P - Атмосферное давление - приведенное к уровню моря атмосферное давление.
Po - Атмосферное давление - измеренное на уровне метеостанции атмосферное давление.
Tmin - Минимальная температура - минимум температуры воздуха на высоте 2 м над землей.
Tmax - Максимальная температура - максимум температуры воздуха на высоте 2 м над землей.
R - Количество осадков - Количество выпавших осадков за период времени, мм. При наведении курсора мыши на число - период времени, за который выпало указанное количество осадков.
R24 - Количество осадков - Количество выпавших осадков за 24 часа, мм.
S - Снежный покров - Высота снежного покрова, см. При наведении курсора мыши на число - состояние снежного покрова и степень покрытия местности в баллах.